Williamsport, PA

4:17 AM EDT on April 21, 2018 (GMT -0400)
Williamsport Rgnl

Weather History for KIPT - October, 2014

Change the Weather History Date:

Friday, October 17, 2014

  Actual Average Record
Temperature  
Mean Temperature 61 °F 51 °F  
Max Temperature 70 °F 62 °F 86 °F (1938)
Min Temperature 51 °F 41 °F 22 °F (1937)
Degree Days  
Heating Degree Days 4 14  
Month to date heating degree days 129 189  
Since 1 July heating degree days 210 317  
Cooling Degree Days 0 0  
Month to date cooling degree days 6 1  
Year to date cooling degree days 713 698  
Growing Degree Days 10 (Base 50)    
Moisture  
Dew Point 49 °F    
Average Humidity 69    
Maximum Humidity 93    
Minimum Humidity 44    
Precipitation  
Precipitation 0.00 in 0.11 in 1.35 in (1943)
Month to date precipitation 2.44 1.96  
Year to date precipitation 32.35 33.15  
Snow  
Snow 0.00 in 0.00 in T in (1977)
Month to date snowfall 0.0 0.0  
Since 1 July snowfall 0.0 0.0  
Since 1 September snowfall 0.0 0.0  
Snow Depth 0.00 in    
Sea Level Pressure  
Sea Level Pressure 29.68 in    
Wind  
Wind Speed 5 mph (SW)    
Max Wind Speed 22 mph    
Max Gust Speed 29 mph    
Visibility 10 miles    
Events      
T = Trace of Precipitation, MM = Missing Value Source: NWS Daily Summary

Daily Weather History Graph

Daily Weather History Graph

Search for Another Location

Airport or City:

Astronomy

Oct. 17, 2014 Rise Set
Actual Time 7:21 AM EDT 6:23 PM EDT
Civil Twilight 6:53 AM EDT 6:51 PM EDT
Nautical Twilight 6:21 AM EDT 7:23 PM EDT
Astronomical Twilight 5:49 AM EDT 7:55 PM EDT
Moon 1:20 AM EDT (10/17) 3:12 PM EDT (10/17)
Length of Visible Light 11h 57m
Length of Day
11h 02m
Waning Crescent, 33% of the Moon is Illuminated
Oct 17
Waning Crescent
Oct 23
New
Oct 30
First Quarter
Nov 6
Full
Nov 14
Last Quarter

Hourly Weather History & Observations

Time (EDT) Temp. Dew Point Humidity Pressure Visibility Wind Dir Wind Speed Gust Speed Precip Events Conditions
12:24 AM 53.1 °F 51.1 °F 93% 29.71 in 10.0 mi Calm Calm - N/A   Overcast
12:54 AM 54.0 °F 51.1 °F 90% 29.70 in 10.0 mi Calm Calm - N/A   Overcast
1:54 AM 53.1 °F 51.1 °F 93% 29.70 in 10.0 mi Calm Calm - N/A   Overcast
2:54 AM 54.0 °F 51.1 °F 90% 29.69 in 10.0 mi Calm Calm - N/A   Overcast
3:01 AM 54.0 °F 51.1 °F 90% 29.70 in 10.0 mi Calm Calm - N/A   Overcast
3:54 AM 55.0 °F 51.1 °F 86% 29.69 in 10.0 mi NW 3.5 mph - N/A   Overcast
4:09 AM 55.0 °F 51.1 °F 86% 29.69 in 10.0 mi West 4.6 mph - N/A   Overcast
4:54 AM 53.1 °F 50.0 °F 89% 29.70 in 9.0 mi ESE 4.6 mph - N/A   Clear
5:09 AM - - N/A% - - ESE 4.6 mph - N/A   Mostly Cloudy
5:54 AM 51.1 °F 48.9 °F 92% 29.70 in 7.0 mi Calm Calm - N/A   Scattered Clouds
6:54 AM 52.0 °F 48.9 °F 89% 29.71 in 10.0 mi Calm Calm - N/A   Overcast
7:49 AM 51.8 °F 48.2 °F 88% 29.72 in 10.0 mi NNE 3.5 mph - N/A   Mostly Cloudy
7:54 AM 52.0 °F 48.9 °F 89% 29.72 in 10.0 mi Calm Calm - N/A   Mostly Cloudy
8:26 AM 52.0 °F 50.0 °F 93% 29.73 in 5.0 mi Calm Calm - N/A   Partly Cloudy
8:54 AM 54.0 °F 51.1 °F 90% 29.73 in 10.0 mi SE 3.5 mph - N/A   Partly Cloudy
9:54 AM 55.9 °F 52.0 °F 87% 29.73 in 10.0 mi SE 3.5 mph - N/A   Scattered Clouds
10:54 AM 60.1 °F 51.1 °F 72% 29.72 in 10.0 mi Calm Calm - N/A   Overcast
11:54 AM 66.9 °F 50.0 °F 54% 29.70 in 10.0 mi WSW 12.7 mph - N/A   Overcast
12:54 PM 66.0 °F 48.9 °F 54% 29.69 in 10.0 mi West 11.5 mph - N/A   Overcast
1:54 PM 68.0 °F 46.9 °F 47% 29.67 in 10.0 mi WSW 16.1 mph - N/A   Mostly Cloudy
2:54 PM 69.1 °F 46.9 °F 45% 29.64 in 10.0 mi West 11.5 mph - N/A   Partly Cloudy
3:54 PM 69.1 °F 46.0 °F 44% 29.62 in 10.0 mi South 11.5 mph 17.3 mph N/A   Scattered Clouds
4:54 PM 68.0 °F 46.9 °F 47% 29.61 in 10.0 mi South 6.9 mph 17.3 mph N/A   Clear
5:54 PM 66.0 °F 46.0 °F 48% 29.61 in 10.0 mi Variable 3.5 mph - N/A   Clear
6:54 PM 64.9 °F 46.0 °F 50% 29.62 in 10.0 mi Variable 6.9 mph - N/A   Clear
7:54 PM 64.0 °F 46.9 °F 54% 29.63 in 10.0 mi Variable 3.5 mph - N/A   Mostly Cloudy
8:54 PM 57.9 °F 48.0 °F 70% 29.63 in 10.0 mi Variable 3.5 mph - N/A   Overcast
9:54 PM 59.0 °F 48.9 °F 69% 29.62 in 10.0 mi NNE 9.2 mph - N/A   Overcast
10:54 PM 61.0 °F 48.0 °F 62% 29.61 in 10.0 mi Variable 4.6 mph - N/A   Overcast
11:54 PM 60.1 °F 48.9 °F 67% 29.59 in 10.0 mi WNW 3.5 mph - N/A   Overcast